Location: Albuquerque Trailhead
(34.7934°N, 106.3736°W)
Time: 05:34:18
(UTC+00:00)

GPS 2-04 Rocket1 - Pass Details

Date: 20 June 2021
Orbit: 415 x 539 km, 35.6° (Epoch: 29 July)

Event Time Altitude Azimuth Distance (km) Brightness Sun altitude
Exits shadow 10:05:13 27° 280° (W) 1,010 3.9 -18.1°
Maximum altitude 10:07:19 80° 6° (N) 512 2.6 -17.8°
Drops below altitude 10° 10:11:09 10° 93° (E) 1,668 5.8 -17.2°
Sets 10:13:18 0° 94° (E) 2,524 6.8 -16.9°
